Retour au catalogue

COSMOS 2309

GLONASS

ActifNavigationMEO
NORAD 23513·PAYLOAD·🇷🇺 Russia

Lancé Mar 7, 1995 depuis Baikonur Cosmodrome

Loading…

Prochains Passages (prochaines 24 heures)

TLE

FraisSource: Space-Track

Époque: Sep 14, 2026, 05:03 UTC

1 23513U 95009C   26257.21091649 -.00000034  00000-0  00000-0 0  9999
2 23513  63.9472 298.1973 0039378 215.5195 133.1502  2.13052574245199

Suivez COSMOS 2309 en temps réel avec AllMySat

Download on the App Store